Location: *
(41.3833°S, 177.8333°W)
Time: 08:35:57
(UTC+00:00)

CZ-4B R/B - Pass Details

Date: 01 April 2020
Orbit: 809 x 881 km, 99.1° (Epoch: 03 June)

Event Time Altitude Azimuth Distance (km) Brightness Sun altitude
Rises 17:39:08 0° 348° (NNW) 3,469 6.3 -6.2°
Reaches altitude 10° 17:41:47 10° 337° (NNW) 2,542 5.5 -5.7°
Maximum altitude 17:46:45 31° 276° (W) 1,514 4.0 -4.8°
Drops below altitude 10° 17:51:46 10° 215° (SW) 2,564 5.4 -3.9°
Sets 17:54:28 0° 204° (SSW) 3,505 6.1 -3.4°
